Probability
0 0 0 0 0 0 0 0 0 0 0 0 0 0 0 0 0 0 0 0 0 0 1 2 3 3 1 0 0 0 0 0 0 0 0 0 0 0 0 0 0 0 0 0
0 0 0 0 0 0 0 0 0 0 0 0 0 0 0 0 0 0 0 0 0 0 0 1 3 3 2 1 0 0 0 0 0 0 0 0 0 0 0 0 0 0 0 0
0 0 0 0 0 0 0 0 0 0 0 0 0 0 0 0 0 0 0 0 0 0 0 1 2 3 3 1 0 1 1 1 0 0 0 0 0 0 0 0 0 0 0 0
0 0 0 0 0 0 0 0 0 0 0 0 0 0 0 0 0 0 0 0 0 0 0 1 2 2 2 2 1 1 2 2 1 0 0 0 0 0 0 0 0 0 0 0
0 0 0 0 0 0 0 0 0 0 0 0 0 0 0 0 0 0 0 0 0 0 0 0 1 1 1 1 1 0 1 2 1 0 0 0 0 0 0 0 0 0 0 0
0 0 0 0 0 0 0 0 0 0 0 0 0 0 0 0 0 0 0 0 0 0 0 0 0 0 0 0 0 0 1 1 1 1 1 0 0 0 0 0 0 0 0 0
0 0 0 0 0 0 0 0 0 0 0 0 0 0 0 0 0 0 0 0 0 0 0 0 0 0 0 0 0 1 1 1 1 2 2 1 1 0 0 0 0 0 0 0
0 0 0 0 0 0 0 0 0 0 0 0 0 0 0 0 0 0 0 0 0 0 0 0 0 0 0 0 0 1 1 1 1 1 2 2 2 1 0 0 0 0 0 0
0 0 0 0 0 0 0 0 0 0 0 0 0 0 0 0 0 0 0 0 0 0 0 0 0 0 0 0 0 0 1 1 1 1 1 1 2 2 1 1 0 0 0 0
0 0 0 0 0 0 0 0 0 0 0 0 0 0 0 0 0 0 0 0 0 0 0 0 0 0 0 0 0 0 0 1 1 0 0 0 1 2 2 2 1 0 0 0
0 0 0 0 0 0 0 0 0 0 0 0 0 0 0 0 0 0 0 0 0 0 0 0 0 0 0 0 0 0 0 0 0 0 0 0 0 1 1 1 1 0 0 0
0 0 0 0 0 0 0 0 0 0 0 0 0 0 0 0 0 0 0 0 0 0 0 0 0 0 0 0 0 0 0 0 0 0 0 0 0 0 0 0 0 0 0 0
0 0 0 0 0 0 0 0 0 0 0 0 0 0 0 0 0 0 0 0 0 0 0 0 0 0 0 0 0 0 0 0 0 0 0 0 0 0 0 0 0 0 0 0
0 0 0 0 0 0 0 0 0 0 0 0 0 0 0 0 0 0 0 0 0 0 0 0 0 0 0 0 0 0 0 0 0 0 0 0 0 0 0 0 0 0 0 0
0 0 0 0 0 0 0 0 0 0 0 0 0 0 0 0 0 0 0 0 0 0 0 0 0 0 0 0 0 0 0 0 0 0 0 0 0 0 0 0 0 0 0 0
0 0 0 0 0 0 0 0 0 0 0 0 0 0 0 0 0 0 0 0 0 0 0 0 0 0 0 0 0 0 0 0 0 0 0 0 0 0 0 0 0 0 0 0
0 0 0 0 0 0 0 0 0 0 0 0 0 0 0 0 0 0 0 0 0 0 0 0 0 0 0 0 0 0 0 0 0 0 0 0 0 0 0 0 0 0 0 0
0 0 0 0 0 0 0 0 0 0 0 0 0 0 0 0 0 0 0 0 0 0 0 0 0 0 0 0 0 0 0 0 0 0 0 0 0 0 0 0 0 0 0 0
0 0 0 0 0 0 0 0 0 0 0 0 0 0 0 0 0 0 0 0 0 0 0 0 0 0 0 0 0 0 0 0 0 0 0 0 0 0 0 0 0 0 0 0
0 0 0 0 0 0 0 0 0 0 0 0 0 0 0 0 0 0 0 0 0 0 0 0 0 0 0 0 0 0 0 0 0 0 0 0 0 0 0 0 0 0 0 0
0 0 0 0 0 0 0 0 0 0 0 0 0 0 0 0 0 0 0 0 0 0 0 0 0 0 0 0 0 0 0 0 0 0 0 0 0 0 0 0 0 0 0 0
0 0 0 0 0 0 0 0 0 0 0 0 0 0 0 0 0 0 0 0 0 0 0 0 0 0 0 0 0 0 0 0 0 0 0 0 0 0 0 0 0 0 0 0
0 0 0 0 0 0 0 0 0 0 0 0 0 0 0 0 0 0 0 0 0 0 0 0 0 0 0 0 0 0 0 0 0 0 0 0 0 0 0 0 0 0 0 0
0 0 0 0 0 0 0 0 0 0 0 0 0 0 0 0 0 0 0 0 0 0 0 0 0 0 0 0 0 0 0 0 0 0 0 0 0 0 0 0 0 0 0 0
0 0 0 0 0 0 0 0 0 0 0 0 0 0 0 0 0 0 0 0 0 0 0 0 0 0 0 0 0 0 0 0 0 0 0 0 0 0 0 0 0 0 0 0
0 0 0 0 0 0 0 0 0 0 0 0 0 0 0 0 0 0 0 0 0 0 0 0 0 0 0 0 0 0 0 0 0 0 0 0 0 0 0 0 0 0 0 0
Wind_Speed
7 7 12 14 17 13 10 10 11 9 6 8 12 14 12 10 9 9 9 8 8 8 8 8 8 7 7 7 8 8 8 9 8 7 7 7 7 6 6 6 7 8 8 8
7 14 14 11 12 13 14 14 12 7 3 4 8 13 12 12 12 11 11 10 9 8 8 8 7 7 8 8 7 8 8 8 8 7 7 6 6 5 6 5 7 8 8 9
15 8 10 13 12 14 15 16 14 9 4 3 5 11 13 13 14 13 12 10 9 10 9 7 7 6 6 7 8 7 8 8 8 7 5 5 4 4 5 6 6 8 8 8
13 12 9 11 14 14 14 12 11 9 7 6 7 8 9 11 13 15 13 11 10 9 8 6 5 5 6 6 5 6 6 7 7 7 6 7 7 8 8 6 6 6 8 8
9 8 10 14 13 12 7 4 7 8 7 8 8 9 7 7 12 12 12 12 10 9 8 6 4 4 4 4 4 4 5 6 6 6 7 8 7 7 5 4 6 7 7 8
10 6 7 9 9 9 4 2 4 5 5 12 13 12 9 9 12 10 10 10 9 7 6 6 4 3 3 3 3 3 3 4 5 6 7 8 8 7 6 5 5 5 5 6
9 10 8 5 5 7 7 5 5 7 9 10 9 11 10 7 8 8 8 6 6 7 6 5 4 3 3 2 2 2 3 4 3 4 6 7 7 8 8 6 6 5 5 5
8 8 10 8 9 8 11 11 8 7 6 4 7 12 8 4 4 4 4 4 4 4 3 4 4 3 2 2 2 2 3 3 3 3 4 4 5 5 5 6 5 5 5 5
7 6 6 10 9 9 9 11 8 5 4 5 7 7 6 3 3 4 4 4 5 5 4 3 3 3 3 3 2 2 2 2 2 2 2 3 3 4 4 4 4 3 3 3
4 5 4 5 6 10 9 6 4 7 6 8 7 9 7 6 7 7 6 5 4 3 3 3 2 2 2 2 1 1 1 2 2 1 1 1 2 2 2 2 2 2 2 2
5 5 4 5 10 11 10 10 8 6 5 5 5 6 3 5 6 7 7 5 4 3 3 3 2 1 2 1 1 1 0 0 0 1 1 1 2 2 2 2 2 2 2 2
6 4 5 8 7 7 9 11 12 9 7 6 6 7 3 3 1 1 3 3 3 3 3 2 2 2 2 1 0 1 1 0 1 1 1 1 1 1 1 1 1 1 1 1
1 3 4 4 4 5 8 10 11 9 6 7 9 9 2 3 3 2 2 1 2 3 3 3 2 2 2 1 1 1 0 0 1 1 0 0 1 1 1 1 1 0 1 1
1 3 5 6 3 2 5 8 9 9 8 9 12 12 9 6 6 6 4 3 3 3 3 3 3 3 3 2 2 1 1 0 1 1 0 0 0 0 0 0 0 0 1 1
2 4 6 8 9 7 8 10 11 13 12 12 12 15 14 9 8 7 6 5 5 4 4 4 4 4 4 3 3 3 2 1 1 1 1 0 1 1 1 1 1 1 1 1
2 4 4 7 8 9 11 13 15 16 15 15 15 17 13 10 8 7 6 6 7 6 5 5 5 4 4 4 3 3 3 2 2 2 1 1 1 1 1 1 1 2 2 1
3 3 3 6 6 6 11 13 14 14 14 14 17 17 11 10 9 8 7 7 7 6 5 5 5 5 5 4 3 3 3 2 2 2 2 1 1 1 1 1 1 1 1 1
6 4 3 4 3 11 10 7 11 14 15 14 13 13 12 11 8 6 5 5 5 4 4 3 3 2 2 2 2 2 2 2 2 2 2 1 1 1 1 1 1 1 1 1
10 7 5 4 6 9 8 6 7 10 13 10 10 10 9 7 6 6 3 2 2 2 2 2 1 1 1 2 2 2 2 3 3 2 2 1 2 2 2 2 1 1 1 1
8 8 6 5 6 9 8 5 5 6 11 6 7 9 8 5 6 6 3 2 1 2 1 1 1 0 1 1 2 2 3 3 3 2 2 1 1 2 2 1 1 1 1 1
3 6 9 10 9 9 7 4 2 6 8 4 5 6 6 7 7 5 3 2 1 1 1 1 1 0 0 1 2 2 2 2 1 1 1 1 1 1 1 1 1 2 2 2
6 5 7 7 10 11 4 3 5 6 3 3 3 3 4 5 6 4 3 2 1 1 0 1 1 0 1 1 2 2 2 1 2 2 2 1 1 1 1 1 1 2 2 2
8 7 5 7 8 5 4 5 4 2 3 3 3 4 4 5 6 5 4 3 2 1 0 0 1 1 1 2 1 2 0 1 2 3 2 1 1 1 1 1 2 2 2 2
6 5 6 8 9 8 7 6 5 4 5 5 4 4 4 6 7 6 4 3 2 1 1 1 2 1 1 2 2 2 1 2 3 3 2 2 2 1 1 1 1 1 1 2
6 4 6 10 10 9 9 8 6 5 4 5 5 5 6 6 7 6 4 4 3 2 1 1 2 2 1 1 2 2 1 2 3 2 2 2 2 2 2 1 1 1 0 1
8 9 10 12 8 7 7 4 4 5 6 6 6 6 5 5 6 5 4 3 2 2 1 1 1 1 1 1 1 1 1 1 2 3 2 2 2 1 2 2 2 3 2 2
Wind_Direction
194 206 212 212 217 237 251 243 240 239 217 216 232 240 240 236 235 236 239 239 235 234 226 211 202 192 182 182 183 186 189 190 187 190 193 198 205 205 207 210 208 205 205 204
205 226 227 227 227 236 249 256 256 258 238 240 251 252 247 242 240 235 235 236 236 240 237 220 200 190 183 184 187 190 193 192 193 195 196 199 200 205 207 209 211 209 207 205
222 228 218 224 228 228 235 239 245 251 262 253 281 269 244 242 240 240 238 237 237 237 240 227 200 190 179 187 190 193 196 196 198 197 190 190 198 209 208 210 211 212 209 207
234 238 230 225 226 223 236 233 243 250 251 242 219 264 240 231 234 231 229 230 232 236 238 233 203 186 186 188 186 191 194 196 198 194 193 193 199 207 211 207 206 206 205 207
227 222 227 230 228 224 238 232 236 240 249 258 237 257 254 230 236 230 222 219 221 224 223 219 206 192 181 176 183 194 199 200 198 198 198 199 211 217 214 203 200 201 201 203
246 245 230 236 237 230 223 222 251 242 237 244 225 235 257 215 228 227 224 216 215 215 206 203 196 175 172 166 173 191 202 208 204 204 204 204 211 215 214 210 205 201 200 202
236 238 234 229 225 212 202 182 204 209 217 237 201 223 248 219 221 216 213 207 200 199 195 187 184 180 171 167 177 190 202 214 209 207 209 211 212 215 216 215 211 204 203 206
216 222 208 207 210 208 208 204 206 211 218 235 202 226 244 206 207 206 199 192 182 186 180 175 169 167 169 178 189 191 195 210 214 214 216 217 217 219 222 221 217 213 211 210
219 231 199 208 208 207 207 218 229 259 278 265 240 244 251 225 211 214 207 203 202 191 183 173 163 168 183 191 190 190 194 203 216 224 221 219 223 224 225 222 218 218 215 209
253 253 221 206 205 219 219 209 205 215 219 238 241 235 233 210 212 214 209 209 207 187 162 149 149 162 167 156 162 175 197 208 213 220 218 216 222 221 225 220 214 209 210 199
235 239 223 193 203 205 206 216 219 218 224 225 244 246 234 215 205 205 207 195 182 178 171 160 151 141 117 99 103 152 189 218 205 207 219 214 225 218 209 208 215 213 205 195
219 231 236 225 229 230 222 220 215 217 226 229 252 257 296 309 276 192 192 190 186 176 162 150 145 137 125 118 72 7 350 326 290 248 217 205 215 210 201 206 216 206 200 195
232 226 237 240 230 221 228 227 229 238 242 236 243 259 282 311 304 281 272 242 208 187 176 167 163 170 174 176 195 235 278 305 320 300 245 190 189 191 200 208 213 197 176 140
258 235 231 239 265 261 250 246 238 233 236 242 242 259 273 278 281 283 281 262 242 221 208 199 194 190 188 187 193 203 217 237 262 259 213 147 169 124 103 72 67 80 123 131
183 236 247 265 278 272 259 253 249 245 241 243 250 255 261 260 258 258 256 256 255 239 228 224 218 207 195 192 199 198 203 204 205 193 165 189 57 58 49 43 41 55 78 90
212 240 255 263 260 265 265 253 243 246 247 249 258 262 261 266 265 258 247 245 251 250 242 238 229 214 211 204 201 199 196 195 188 186 189 169 108 85 68 50 52 65 69 71
230 223 240 259 265 271 252 238 239 239 238 243 251 258 267 268 262 256 249 243 245 253 252 241 227 215 209 206 198 201 194 180 177 180 172 156 140 134 128 112 96 96 86 82
229 227 238 256 252 239 244 231 233 242 247 244 249 258 262 264 263 257 250 244 251 254 256 258 247 235 213 188 170 169 171 175 176 176 166 151 153 166 159 153 155 141 108 108
220 217 225 228 242 261 264 240 230 241 252 250 256 265 271 283 291 278 285 259 249 258 263 271 266 245 218 174 157 154 179 177 174 186 189 182 177 182 178 184 178 146 117 108
216 209 219 233 241 244 250 244 239 242 255 253 258 268 275 283 269 270 303 313 318 335 339 346 356 41 161 155 137 160 187 180 190 192 190 182 170 173 185 191 156 115 119 119
196 210 222 235 245 255 253 258 242 220 246 257 254 263 266 258 260 281 305 318 323 323 335 11 26 7 340 89 132 163 176 197 188 135 123 116 122 147 149 145 119 107 107 105
207 213 218 222 235 248 251 221 214 240 266 277 270 277 277 280 289 292 290 284 277 282 319 52 53 9 28 86 146 170 194 146 95 109 115 114 96 104 124 145 125 118 125 124
222 218 219 219 234 254 248 241 249 272 279 285 289 301 299 291 285 286 279 268 265 231 230 88 119 87 33 48 101 155 107 92 108 111 112 108 91 84 110 150 150 138 138 142
244 237 245 259 259 258 261 269 273 274 266 270 272 277 277 274 275 275 263 250 237 220 194 138 127 138 14 32 57 90 98 104 120 127 128 131 131 116 93 102 132 140 146 153
242 248 251 260 268 277 263 254 260 275 277 278 277 264 253 259 267 261 249 238 226 209 178 159 169 170 155 66 59 62 70 109 128 138 141 134 125 131 121 99 95 114 108 168
224 232 241 252 251 250 266 271 259 261 266 267 271 270 259 246 255 256 243 225 200 183 157 157 161 158 139 102 78 43 28 117 146 152 147 137 128 121 119 116 86 67 74 62